CUSat

operational
NORAD ID: 39266 Int'l Des: 2013-055 Owner: CORN Country: US
LEOPOLAR

Über CUSat

Beschreibung wird geladen...

Live-Position

3D-Globus wird geladen...

Nächste Überflüge

Höhenverlauf

Altitude vs Time

uPlot chart will show altitude changes over time

Zweizeiliger Elementsatz

1 39266U 13055B 26062.54160556 .00175970 82402-5 72386-3 0 9997
2 39266 80.9338 122.5911 0143500 191.7718 168.0177 15.71717450656260
Epoch: 3. März 2026 • Age: 34 hours

Aktueller Status

Höhe 303.1 km
Geschwindigkeit 7.76 km/s
Subsatellitenpunkt -51.70°S, 3.24°E
Startdatum 29. Sept. 2013
Alter 12.4 years
Typ other

Technische Details

Klassifizierung Payload
Masse 23.00 kg
Trockenmasse 23.00 kg
Gesamtmasse 23.00 kg
Länge 0.26 m
Durchmesser 0.46 m
Spannweite 0.46 m
Form Hex Cyl
Hersteller CORN
Bus-Typ CUSAT
Phasenstatus In Orbit
Besitzer/Staat CORN/US

Große Konstellationen

Loading constellations...